Total_Precipitation_Accumulation
1.82 1.93 2.15 2.32 2.38 2.43 2.66 2.91 3.24 3.61 3.72 3.63 3.58 3.50 3.18 2.88 2.51 2.27 2.25 2.33 2.30 2.41 2.67 2.41 2.70 2.85 2.88 2.99 3.02 3.16 3.05 2.88 3.05 2.93 2.43 1.95 1.66 1.50 1.36 1.37 1.48 1.45 1.53
1.82 1.99 2.19 2.30 2.25 2.37 2.64 2.99 3.27 3.60 3.57 3.68 3.83 3.71 3.45 2.86 2.48 2.27 2.23 2.25 2.26 2.28 2.42 2.70 2.75 2.83 2.90 2.91 2.86 2.89 2.70 2.52 2.87 2.92 2.70 2.11 1.74 1.39 1.18 1.36 1.35 1.44 1.67
1.49 1.63 1.76 1.90 2.13 2.47 2.87 3.12 3.31 3.40 3.44 3.56 3.61 3.29 3.07 2.64 2.50 2.47 2.34 2.26 2.34 2.38 2.48 2.65 2.74 2.67 2.60 2.65 2.74 2.64 2.49 2.34 2.47 2.74 2.76 2.29 1.82 1.46 1.21 1.22 1.29 1.59 1.76
1.31 1.41 1.55 1.82 2.16 2.48 2.89 3.27 3.25 3.22 3.17 3.29 3.35 3.16 2.86 2.60 2.47 2.46 2.24 2.08 2.05 2.10 2.20 2.27 2.43 2.49 2.48 2.46 2.41 2.39 2.41 2.36 2.24 2.45 2.53 2.38 2.14 1.89 1.41 1.15 1.19 1.44 1.56
1.21 1.31 1.45 1.67 1.87 2.16 2.47 2.82 3.04 3.07 2.97 2.97 2.97 2.93 2.70 2.44 2.27 2.20 2.08 2.01 2.02 1.91 1.90 2.00 2.19 2.24 2.16 2.16 2.29 2.46 2.43 2.29 2.16 2.26 2.35 2.48 2.40 2.10 1.78 1.37 1.27 1.27 1.20
1.34 1.38 1.56 1.70 1.77 1.95 2.20 2.41 2.58 2.65 2.61 2.55 2.55 2.57 2.47 2.38 2.20 2.04 2.05 2.06 1.98 1.83 1.77 1.79 1.89 1.95 1.95 1.92 1.97 2.08 2.12 2.10 2.19 2.22 2.21 2.31 2.31 2.20 2.09 1.70 1.47 1.35 1.08
1.42 1.47 1.63 1.72 1.77 1.81 1.86 1.95 2.01 2.10 2.04 1.98 1.98 2.03 2.03 2.01 1.91 1.87 1.92 1.94 1.87 1.76 1.71 1.65 1.60 1.60 1.63 1.71 1.88 1.90 1.91 1.99 2.10 2.12 2.14 2.06 2.00 2.08 2.07 1.89 1.63 1.45 1.12
1.27 1.35 1.42 1.35 1.29 1.31 1.36 1.43 1.45 1.48 1.46 1.51 1.60 1.62 1.72 1.71 1.66 1.77 1.77 1.79 1.75 1.69 1.57 1.44 1.38 1.36 1.39 1.48 1.66 1.84 1.84 1.93 1.98 1.93 1.97 1.87 1.79 1.92 1.89 1.86 1.88 1.71 1.52
0.91 0.91 0.93 0.97 1.02 1.04 1.05 1.07 1.11 1.12 1.07 1.09 1.23 1.31 1.38 1.41 1.42 1.51 1.54 1.49 1.47 1.39 1.35 1.32 1.30 1.25 1.28 1.32 1.37 1.50 1.52 1.61 1.66 1.74 1.71 1.62 1.62 1.71 1.75 1.85 1.93 1.88 1.74
0.73 0.69 0.66 0.69 0.73 0.75 0.82 0.89 0.96 1.06 1.03 0.96 0.98 1.00 1.07 1.11 1.21 1.26 1.27 1.30 1.33 1.29 1.21 1.21 1.21 1.16 1.14 1.16 1.19 1.24 1.30 1.28 1.33 1.50 1.52 1.50 1.51 1.62 1.66 1.72 1.86 1.96 1.97
0.46 0.44 0.40 0.44 0.51 0.63 0.71 0.75 0.87 0.96 0.91 0.81 0.81 0.85 0.86 0.91 0.98 1.05 1.06 1.11 1.16 1.22 1.21 1.17 1.13 1.03 0.97 0.97 1.00 1.01 1.11 1.13 1.12 1.19 1.22 1.28 1.39 1.53 1.58 1.62 1.68 1.89 2.06
0.30 0.26 0.26 0.29 0.36 0.45 0.50 0.58 0.68 0.78 0.81 0.77 0.78 0.83 0.85 0.85 0.86 0.89 0.88 0.90 0.95 0.97 0.96 0.95 1.02 1.04 1.03 1.00 0.99 0.96 0.95 1.01 1.03 1.09 1.18 1.24 1.36 1.48 1.46 1.54 1.62 1.81 2.04
0.28 0.21 0.21 0.24 0.26 0.31 0.38 0.46 0.51 0.59 0.67 0.70 0.76 0.84 0.84 0.81 0.85 0.88 0.87 0.86 0.86 0.87 0.85 0.86 0.89 0.91 0.99 1.10 1.12 1.10 1.10 1.12 1.04 1.09 1.19 1.18 1.22 1.30 1.33 1.44 1.57 1.72 1.87
0.22 0.19 0.18 0.20 0.19 0.22 0.28 0.34 0.37 0.43 0.51 0.60 0.76 0.92 0.98 0.97 0.98 0.94 0.94 0.91 0.87 0.88 0.86 0.81 0.82 0.84 0.84 0.92 1.05 1.11 1.11 1.08 1.03 1.03 1.03 1.00 1.02 1.11 1.20 1.26 1.42 1.57 1.71
0.23 0.20 0.16 0.13 0.15 0.17 0.20 0.27 0.35 0.39 0.45 0.61 0.84 0.97 0.95 0.90 0.89 0.87 0.94 0.92 0.84 0.80 0.84 0.76 0.73 0.79 0.82 0.80 0.82 0.94 0.97 0.97 0.96 0.97 0.90 0.79 0.79 0.83 0.87 0.94 1.18 1.35 1.50
0.20 0.17 0.14 0.12 0.12 0.13 0.15 0.19 0.29 0.36 0.46 0.59 0.70 0.75 0.81 0.84 0.81 0.75 0.72 0.75 0.78 0.77 0.76 0.69 0.68 0.69 0.62 0.63 0.60 0.62 0.71 0.77 0.80 0.84 0.86 0.77 0.66 0.61 0.64 0.66 0.79 0.97 1.13
0.15 0.14 0.13 0.11 0.11 0.11 0.16 0.19 0.25 0.31 0.43 0.54 0.58 0.65 0.78 0.81 0.75 0.64 0.66 0.73 0.76 0.75 0.73 0.66 0.62 0.62 0.60 0.48 0.43 0.43 0.53 0.63 0.66 0.70 0.76 0.67 0.59 0.58 0.54 0.59 0.66 0.71 0.78
0.08 0.10 0.10 0.12 0.10 0.11 0.17 0.21 0.26 0.31 0.44 0.57 0.63 0.67 0.80 0.81 0.75 0.71 0.70 0.72 0.72 0.72 0.73 0.67 0.63 0.67 0.62 0.48 0.40 0.36 0.36 0.49 0.59 0.62 0.67 0.69 0.70 0.62 0.60 0.61 0.66 0.64 0.64
0.06 0.07 0.06 0.10 0.19 0.21 0.21 0.26 0.32 0.36 0.44 0.57 0.67 0.76 0.86 0.87 0.82 0.78 0.76 0.75 0.72 0.67 0.68 0.69 0.69 0.71 0.68 0.49 0.37 0.35 0.42 0.53 0.58 0.61 0.61 0.65 0.70 0.64 0.53 0.54 0.61 0.65 0.67
0.10 0.11 0.09 0.13 0.20 0.26 0.26 0.31 0.37 0.46 0.57 0.67 0.75 0.81 0.87 0.91 0.88 0.87 0.86 0.82 0.80 0.72 0.66 0.67 0.71 0.71 0.75 0.55 0.33 0.30 0.43 0.60 0.66 0.75 0.73 0.59 0.55 0.54 0.42 0.46 0.57 0.59 0.61
0.14 0.17 0.20 0.27 0.30 0.29 0.34 0.42 0.46 0.53 0.59 0.69 0.80 0.92 1.00 0.96 0.92 0.95 0.97 0.94 0.90 0.89 0.81 0.73 0.73 0.74 0.70 0.56 0.34 0.30 0.42 0.61 0.74 0.76 0.79 0.73 0.52 0.43 0.39 0.37 0.46 0.52 0.51
0.16 0.28 0.34 0.37 0.36 0.41 0.54 0.63 0.65 0.63 0.66 0.76 0.86 0.99 1.09 0.93 0.85 1.01 1.06 1.05 1.07 1.06 1.01 0.95 0.85 0.82 0.80 0.59 0.43 0.36 0.39 0.52 0.72 0.85 0.85 0.72 0.53 0.44 0.40 0.35 0.37 0.36 0.35
0.20 0.30 0.35 0.38 0.40 0.50 0.66 0.83 0.84 0.79 0.78 0.86 0.97 1.01 1.03 1.08 1.10 1.09 1.11 1.12 1.12 1.13 1.09 1.07 1.01 0.96 0.96 0.87 0.57 0.46 0.43 0.49 0.62 0.73 0.79 0.71 0.50 0.43 0.44 0.43 0.37 0.33 0.33
0.22 0.25 0.30 0.37 0.48 0.57 0.71 0.86 0.91 0.93 0.96 0.99 1.04 1.07 1.09 1.12 1.18 1.28 1.24 1.20 1.14 1.16 1.18 1.13 1.12 1.10 1.10 1.04 0.85 0.70 0.60 0.57 0.58 0.63 0.65 0.68 0.61 0.50 0.52 0.53 0.45 0.39 0.43
0.28 0.30 0.38 0.48 0.55 0.62 0.72 0.82 0.90 1.01 1.11 1.14 1.14 1.16 1.17 1.20 1.25 1.28 1.24 1.17 1.13 1.04 1.09 1.11 1.10 1.12 1.11 1.00 0.88 0.84 0.82 0.77 0.72 0.69 0.78 0.79 0.84 0.76 0.72 0.74 0.69 0.64 0.67
0.42 0.41 0.44 0.54 0.59 0.66 0.77 0.87 1.01 1.14 1.30 1.30 1.21 1.19 1.16 1.20 1.24 1.24 1.10 0.89 0.82 0.75 0.74 0.78 0.81 0.80 0.76 0.69 0.65 0.68 0.68 0.67 0.68 0.67 0.81 0.91 0.95 0.93 0.94 0.93 0.91 0.89 0.84